Regional Weather Roundup
Issued by NWS Newport/Morehead, NC

Current Version | Previous Version | Graphics & Text | Print | Product List | Glossary Off
Versions: 1 2 3 4 5 6 7 8 9 10 11 12 13 14 15 16 17 18 19 20 21 22 23 24 25 26 27 28 29 30 31 32 33 34 35 36 37 38 39 40 41 42 43 44 45 46 47 48 49 50

000
ASUS42 KMHX 232210
RWRMHX
WEATHER ROUNDUP FOR EASTERN NORTH CAROLINA
NATIONAL WEATHER SERVICE NEWPORT/MOREHEAD CITY NC
600 PM EDT TUE SEP 23 2014

NOTE: "FAIR" INDICATES FEW OR NO CLOUDS BELOW 12,000 FEET
WITH NO SIGNIFICANT WEATHER AND/OR OBSTRUCTIONS TO VISIBILITY

NCZ015>017-031-032-045>047-102-103-232300-
NORTH COAST

CITY           SKY/WX    TMP DP  RH WIND       PRES   REMARKS
EDENTON        LGT RAIN  62  56  80 N7        30.26S
ELIZABETH CITY CLOUDY    64  56  75 N13       30.26S
KITTY HAWK     LGT RAIN  66  58  75 NE14G20   30.23R
MANTEO         CLOUDY    65  58  80 N15G22    30.24R

$$

NCZ045>047-081-094-103-104-232300-
CENTRAL COAST

CITY           SKY/WX    TMP DP  RH WIND       PRES   REMARKS
FRISCO         CLOUDY    68  63  84 NE14G25   30.17S
SWANQUARTER      N/A     64 N/A N/A N7G17     30.18S

$$

NCZ095-097-098-100-101-232300-
SOUTHERN COAST

CITY           SKY/WX    TMP DP  RH WIND       PRES   REMARKS
BEAUFORT       LGT RAIN  66  62  87 N14       30.17S
CEDAR ISLAND     N/A     68 N/A N/A N36       30.24S
JACKSONVILLE   LGT RAIN  62  59  90 N14       30.19F
NEWPORT        NOT AVBL
PINEY ISLAND   LGT RAIN  68  61  78 N18G29    30.18S
WILMINGTON     CLOUDY    61  59  93 N14       30.19S


$$

NCZ011>013-027>030-043-044-078>080-089-090>093-098-232300-
COASTAL PLAIN

CITY           SKY/WX    TMP DP  RH WIND       PRES   REMARKS
AHOSKIE        CLOUDY    61  51  70 N7        30.29F
CLINTON        LGT RAIN  61  58  88 N9        30.25S
ELIZABETHTOWN  LGT RAIN  60  59  95 N3        30.22F
GOLDSBORO      CLOUDY    61  59  94 N2        30.24S
GREENVILLE     LGT RAIN  63  55  77 N8        30.27S
HAVELOCK       LGT RAIN  64  61  90 N15       30.21R
KENANSVILLE    LGT RAIN  61  57  88 N6        30.24F
KINSTON        CLOUDY    61  57  88 N9        30.25F
NEW BERN       LGT RAIN  64  59  83 N12G22    30.22F
RICHLANDS      CLOUDY    61  55  82 N8        30.21F
ROANOKE RAPIDS NOT AVBL
ROCKY MOUNT    CLOUDY    63  52  67 N9        30.29R
WASHINGTON     CLOUDY    61  58  92 N7        30.25S
WHITEVILLE     RAIN      61  58  90 N6        30.22R

$$

AMZ130-135-150-152-154-156-158-170-250-252-270-ANZ085-086-088-633-658-670-232300-
MARINE OBSERVATIONS

STATION/POSITION TIME  TEMP    WIND        PRES    WAVE   SWELL
                       AIR SEA DIR/SP/G            HT/PER HT/PER
                 (UTC) (F)     (DEG/KT/KT) (MB)    (FT/S) (FT/S)
CHESAPEAKE LIGHT 2100   64      40/ 16/ 18 1026.0
BUOY 44014       2200   68 75   40/ 17/ 21 1023.6    4/ 7   2/ 8
DUCK             2200   67 73   30/ 20/ 24 1023.4
2E DUCK          2200                        N/A     4/ 6
OREGON INLET     2200   68 73   20/ 20/ 24 1022.9
BUOY 44095       2200      74                N/A     5/ 5
20E OREGON INLET NOT AVBL
HATTERAS CG      NOT AVBL
DIAMOND BUOY     2200   74      10/ 25/ 33 1019.7    7/ 6
CAPE LOOKOUT     2100   66      20/ 23/ 27 1021.3
BEAUFORT LAB     2100   65 74   20/ 13/ 20 1021.2
30 SE NEW RIVER  2100   69 82   30/ 29/ 33 1019.1
5 SE WRIGHTSVILL 2100   63 78   20/ 19/ 23   N/A
BUOY 41002       2111   78 80  120/ 10/ 12 1018.3    3/ 7   2/ 7
BUOY 41004       2200   73 81   10/ 29/ 35 1017.4    9/ 7

$$


USA.gov is the U.S. government's official web portal to all federal, state and local government web resources and services.